#timestamp,LO_Frequency,Hit,StdDev 
1587549615.9,286046997.9,N
1587549635.7,286046995.1,P
1587549655.6,286046997.6,N
1587549675.4,286046997.6,N
1587549695.2,286046997.0,N
1587549715.1,286046997.9,N
1587549716.0,286046997.9,N
1587549735.8,286046997.5,N
1587549755.7,286046996.5,N
1587549775.5,286046997.2,N
1587549795.3,286046997.6,N
1587549815.2,286046997.1,N
1587549835.0,286046997.5,N
1587549835.9,286046997.5,N
1587549855.8,286046996.5,Y
1587549875.6,286047000.8,P
1587549895.4,286046999.7,N
1587549915.3,286047000.0,N
1587549935.1,286047000.0,N
1587549955.9,286047000.5,N
1587549975.7,286047000.5,N
1587549995.6,286047000.5,N
1587550015.4,286047004.2,Y
1587550035.2,286047003.0,P
1587550055.1,286047003.7,N
1587550056.0,286047003.7,N
1587550075.8,286046999.8,N
1587550095.7,286046999.1,N
1587550115.5,286046997.2,N
1587550135.3,286046996.9,N
1587550155.2,286047001.0,N
1587550175.0,286046999.1,N
1587550175.9,286046999.1,N
1587550195.8,286046999.1,N
1587550215.6,286047001.1,N
1587550235.4,286046999.4,N
1587550255.3,286046996.5,N
1587550275.1,286046998.6,N
1587550295.9,286047000.4,N
1587550315.7,286046999.7,N
1587550335.5,286046998.3,N
1587550355.4,286046999.5,N
1587550375.2,286046999.2,N
1587550395.0,286046994.9,N
1587550395.9,286046994.9,N
1587550415.8,286046996.9,N
1587550435.6,286046999.7,N
1587550455.5,286047002.3,N
1587550475.3,286047002.1,N
1587550495.1,286047002.8,N
1587550515.9,286047001.4,N
1587550535.7,286047002.1,N
1587550555.6,286047000.5,N
1587550575.4,286047002.7,N
1587550595.2,286047004.3,N
1587550615.1,286047002.6,N
1587550616.0,286047002.6,N
1587550635.8,286046998.3,N
1587550655.7,286046997.4,N
1587550675.5,286046995.9,N
1587550695.3,286046992.4,Y
1587550715.2,286046995.1,P
1587550735.0,286046997.9,N
1587550735.9,286046997.9,N
1587550755.8,286046995.0,Y
1587550775.6,286046999.1,P
1587550795.4,286046998.5,N
1587550815.3,286047000.1,N
1587550835.1,286047000.1,N
1587550855.8,286047002.1,N
1587550875.7,286047001.3,N
1587550895.5,286047002.5,N
1587550915.4,286047004.0,N
1587550935.2,286047002.9,N
1587550955.0,286047004.0,N
1587550955.9,286047004.0,N
1587550975.8,286047004.2,N
1587550995.6,286047001.7,N
1587551015.5,286047002.7,N
1587551035.3,286047000.4,N
1587551055.1,286047001.0,N
1587551075.9,286046996.9,N
1587551095.7,286047000.8,N
1587551115.6,286047002.5,N
1587551135.4,286047000.6,N
1587551155.2,286047001.0,N
1587551175.1,286046998.9,N
1587551176.0,286046998.9,N
1587551225.8,286047000.9,E
1587551235.8,286046998.7,N
1587551255.6,286046996.9,P
1587551275.4,286046996.8,P
1587551295.3,286046996.6,Y
1587551315.1,286047000.7,P
1587551335.9,286047000.9,N
1587551355.7,286047000.4,N
1587551375.5,286046999.3,N
1587551395.4,286046997.3,N
1587551415.2,286046999.5,N
1587551435.1,286046998.4,N
1587551436.0,286046998.4,N
1587551455.8,286047000.6,N
1587551475.6,286046999.8,N
1587551495.5,286047001.0,N
1587551515.3,286046998.1,N
1587551535.1,286047000.7,N
1587551555.9,286047000.2,N
1587551575.7,286047000.7,N
1587551595.6,286046998.2,N
1587551615.4,286047002.8,N
1587551635.2,286047000.6,N
1587551655.1,286046998.5,N
1587551656.0,286046998.5,N
1587551675.8,286046998.3,N
1587551725.7,286046999.9,E
1587551735.6,286047000.5,N
1587551755.4,286046998.8,P
1587551775.3,286046998.2,N
1587551795.1,286046998.3,N
1587551815.9,286046998.2,N
1587551835.7,286047001.0,N
1587551855.5,286046993.4,Y
1587551875.4,286047000.0,P
1587551895.2,286047000.4,N
1587551915.1,286047000.4,N
1587551916.0,286047000.4,N
1587551935.8,286047000.6,N
1587551955.6,286047002.2,Y
1587551975.5,286047003.8,P
1587551995.3,286047005.8,P
1587552015.2,286047004.6,N
1587552035.9,286047005.8,N
1587552055.7,286047004.5,N
1587552075.6,286047004.7,N
1587552095.4,286047002.9,N
1587552115.3,286047003.7,N
1587552135.1,286047003.2,N
1587552136.0,286047003.2,N
1587552155.8,286047001.9,N
1587552175.7,286047004.3,N
1587552195.5,286047003.7,N
1587552215.3,286047005.4,Y
1587552235.2,286047002.1,P
1587552255.0,286047002.7,P
1587552255.9,286047002.7,P
1587552275.8,286046999.7,N
1587552295.6,286047000.6,N
1587552315.4,286047001.2,N
1587552335.3,286046998.4,N
1587552355.1,286046998.4,N
1587552375.9,286046998.9,N
1587552395.7,286046998.7,N
1587552415.5,286046997.9,N
1587552435.4,286046997.2,N
1587552455.2,286046995.0,N
1587552475.0,286046996.8,N
1587552475.9,286046996.8,N
1587552495.8,286046996.8,N
1587552515.6,286046996.5,N
1587552535.5,286046997.5,N
1587552555.3,286046997.6,N
1587552575.1,286046996.0,N
1587552595.9,286046996.7,N
1587552615.7,286046997.8,N
1587552635.6,286046996.4,N
1587552655.4,286046995.4,N
1587552675.2,286046994.9,N
1587552695.1,286046996.8,N
1587552696.0,286046996.8,N
1587552715.8,286046999.2,N
1587552735.6,286047001.1,N
1587552755.5,286046998.2,N
1587552775.3,286047001.1,N
1587552795.2,286047000.5,N
1587552815.9,286046999.7,N
1587552835.7,286046999.9,N
1587552855.6,286047002.7,N
1587552875.4,286047000.7,N
1587552895.2,286046998.9,N
1587552915.1,286046999.4,N
1587552916.0,286046999.4,N
1587552935.8,286046997.1,N
1587552955.7,286046996.7,N
1587552975.5,286046997.3,N
1587552995.3,286046996.3,N
1587553015.2,286046996.1,N
1587553035.0,286046995.4,N
1587553035.9,286046995.4,N
1587553055.8,286046995.2,N
1587553075.6,286046994.9,N
1587553095.4,286046998.0,N
1587553115.3,286046996.2,N
1587553135.1,286046997.5,N
1587553155.8,286046995.0,N
1587553175.7,286046997.3,N
1587553195.5,286046997.6,N
